Wind_Speed
4 4 4 3 2 0 1 3 3 3 4 4 4 5 5 6 6 6 6 6 6 6 5 6 6 7 7 7 7 7 6 6 6 6 6 6 6 7 7 7 8 8 9
5 5 5 4 3 1 0 1 1 2 2 2 2 3 3 3 4 4 4 4 5 5 5 5 5 6 6 6 6 6 6 6 5 5 6 6 6 6 6 7 7 8 9
6 6 6 5 4 2 1 1 1 1 0 0 1 1 1 2 2 2 2 3 3 3 3 4 4 4 4 5 5 5 5 5 4 4 5 6 5 6 6 7 7 8 9
8 7 7 6 5 3 2 2 1 1 1 1 1 1 1 1 1 1 1 2 2 2 2 2 2 2 2 3 3 3 3 3 3 3 4 5 5 5 6 7 7 8 9
9 8 8 7 6 5 4 3 3 3 3 3 3 3 3 3 3 2 2 2 2 3 2 2 2 1 1 1 1 2 2 2 2 3 4 4 5 6 6 7 7 8 9
9 9 8 9 7 6 5 5 4 4 4 5 5 5 5 5 5 5 4 4 4 4 3 3 3 2 2 1 1 1 0 0 1 2 3 4 5 6 6 7 7 8 8
10 10 9 8 8 7 6 5 5 5 5 6 7 7 7 7 8 7 7 6 6 5 5 5 4 4 4 3 3 2 2 1 2 2 3 4 5 6 6 7 7 8 8
10 9 9 8 8 7 6 5 6 6 6 7 7 8 9 9 10 10 9 9 8 7 7 7 6 6 6 5 5 4 4 3 3 3 3 4 5 6 6 7 7 8 8
9 8 9 9 9 8 7 6 6 7 7 7 8 9 10 11 11 11 11 11 11 10 9 9 8 8 8 8 7 7 6 6 5 5 4 5 6 7 7 7 7 8 8
10 9 8 9 10 9 8 8 8 8 8 8 8 9 10 11 12 12 12 13 13 13 12 11 11 11 10 10 9 9 9 8 7 7 6 6 7 8 8 9 9 9 9
10 9 10 10 11 11 10 9 9 9 9 10 11 11 12 12 12 13 13 14 15 14 14 14 14 13 12 12 12 11 11 11 10 9 9 8 9 9 10 10 10 10 10
10 11 11 10 11 12 12 11 11 12 12 12 13 13 14 14 14 14 14 15 16 16 16 16 16 16 15 14 13 13 13 13 13 12 12 11 11 11 11 11 12 12 12
11 11 11 11 12 13 13 13 13 13 14 14 14 15 15 15 15 15 15 16 16 17 17 17 17 17 17 16 15 14 14 14 14 14 14 14 13 13 13 13 13 14 14
11 11 12 12 13 14 14 14 13 14 14 14 14 15 16 16 16 16 16 16 16 17 17 18 18 18 18 17 17 16 16 16 16 16 16 16 16 15 14 15 16 15 15
10 10 10 11 11 13 13 13 12 12 13 13 14 15 16 16 16 17 17 17 17 17 17 18 18 18 18 18 18 19 19 18 18 18 17 17 18 17 17 16 17 18 17
9 10 10 9 9 10 11 11 11 11 12 13 14 15 15 15 16 16 16 17 17 18 19 19 19 19 19 19 20 20 20 20 20 21 19 19 20 20 19 18 18 18 19
7 7 8 8 8 9 10 11 11 11 12 13 15 14 14 15 16 16 17 18 18 19 20 20 20 20 20 21 21 22 22 22 22 23 22 21 21 21 21 21 21 20 21
4 5 7 7 7 8 9 10 10 11 12 13 14 13 13 14 15 16 17 17 18 18 19 20 20 20 21 21 22 23 23 24 24 25 25 24 23 23 24 23 23 22 22
3 4 5 6 7 8 9 8 10 11 12 13 14 14 14 15 15 16 17 17 18 18 19 20 20 20 20 21 22 22 23 24 25 26 26 26 25 25 25 25 25 24 24
3 3 4 5 6 7 7 7 9 11 12 13 14 14 14 15 15 16 16 17 18 18 18 19 19 20 20 21 21 22 22 24 25 26 27 26 27 27 27 27 26 26 26
2 2 3 4 4 5 6 8 9 10 11 12 13 13 14 14 15 16 16 17 17 18 19 19 20 20 21 22 22 23 23 24 25 25 27 28 29 29 29 30 30 29 29
2 2 3 3 4 5 5 6 7 8 9 10 11 12 13 14 15 15 16 16 17 18 19 20 21 21 21 22 22 23 24 24 26 27 27 28 30 31 31 32 32 32 32
3 4 4 4 4 5 5 6 6 8 9 10 11 12 13 13 14 14 15 16 17 18 19 20 21 21 22 22 23 24 25 25 27 28 28 29 31 32 32 33 33 33 34
4 4 5 5 5 5 6 6 7 8 9 9 10 11 11 12 13 13 14 15 16 17 18 19 20 21 22 22 23 24 25 26 26 28 29 29 30 31 33 34 35 35 34
4 4 5 6 6 6 6 6 7 8 8 9 10 10 11 12 12 13 14 14 15 16 17 18 19 21 22 22 23 24 25 25 26 27 29 30 30 31 32 33 35 36 36
4 4 5 6 6 6 6 7 7 8 8 9 10 11 11 11 12 13 14 15 15 16 17 18 19 20 21 22 23 24 25 26 27 27 28 29 31 32 33 33 35 37 37
Wind_Direction
287 282 275 266 265 274 92 90 82 79 76 67 58 52 47 45 46 45 42 39 38 40 45 51 53 56 57 57 58 61 66 69 75 77 80 87 92 96 99 104 109 111 113
276 264 256 247 246 243 182 104 92 82 76 71 61 53 44 37 35 36 35 33 34 38 43 45 49 49 52 54 56 59 62 66 74 77 83 92 98 102 108 111 115 117 117
273 258 248 243 243 243 239 204 160 150 98 53 44 32 24 16 18 21 20 21 21 23 30 37 38 41 44 46 51 57 62 65 72 81 87 94 104 114 116 119 122 122 122
268 254 246 243 239 239 243 245 232 231 242 253 259 277 281 297 310 321 337 350 351 354 2 15 21 26 36 39 40 49 58 65 73 85 99 106 118 124 124 125 127 127 127
265 258 250 251 241 237 245 254 254 249 247 254 258 264 269 271 269 268 275 294 309 316 324 327 332 334 353 13 20 32 45 66 88 105 116 120 131 137 135 133 133 132 132
265 265 252 250 246 243 247 257 256 256 254 258 262 264 267 268 266 264 262 268 277 284 288 290 285 280 283 283 286 306 319 135 143 138 144 135 143 147 144 140 140 139 138
267 263 253 247 243 239 240 253 258 259 260 263 265 265 268 269 265 264 261 261 263 267 270 272 272 267 264 260 254 245 238 218 195 178 167 154 155 158 156 150 149 147 145
267 261 250 243 238 233 237 252 260 258 262 266 267 269 271 272 268 264 260 260 259 259 261 262 264 262 261 260 255 245 236 227 216 203 189 180 173 172 171 165 160 157 154
267 260 257 241 233 232 238 250 256 261 266 269 268 269 273 275 272 267 261 259 259 259 259 257 257 255 256 257 255 248 239 232 226 216 206 198 189 186 184 178 174 170 167
264 262 260 239 232 234 241 248 254 261 268 273 273 275 274 277 278 272 264 261 259 258 258 256 255 254 255 252 252 249 240 237 234 227 220 211 203 200 197 191 188 185 180
256 250 248 245 241 240 242 247 253 258 266 274 275 274 274 277 278 273 269 264 259 259 259 258 257 254 256 254 248 245 242 240 239 233 229 223 217 212 207 201 197 195 192
256 249 243 241 244 248 248 252 256 259 265 271 274 272 271 273 275 272 272 268 263 261 261 260 258 256 255 255 249 244 242 241 241 238 237 233 228 223 216 208 205 203 202
253 252 237 245 247 249 251 256 259 261 265 269 274 274 271 271 271 271 271 270 266 263 262 261 259 258 254 251 248 243 240 241 242 241 240 237 233 229 224 218 213 209 208
248 244 240 250 249 244 251 258 260 263 265 270 275 275 271 269 268 270 271 270 269 265 262 262 261 256 253 250 247 241 239 242 244 241 241 241 236 231 227 223 218 215 212
246 244 249 255 254 251 256 260 264 267 271 274 276 274 270 269 269 270 270 270 268 264 263 264 261 256 254 253 250 245 240 242 245 241 241 241 236 235 232 228 222 219 217
252 246 247 254 257 258 258 263 267 270 272 272 273 271 271 271 269 267 266 267 266 265 265 265 263 259 256 253 251 249 242 242 242 240 240 241 239 237 235 231 226 223 222
248 249 253 261 261 259 263 264 265 271 272 273 275 274 274 272 269 266 265 266 267 266 265 264 264 261 256 255 253 251 246 243 243 242 241 242 242 239 237 233 230 229 227
254 253 259 261 257 258 264 267 267 273 277 277 277 275 274 274 272 270 267 266 267 267 266 265 265 262 259 257 255 252 250 247 245 243 242 242 241 240 239 236 233 231 229
284 259 262 260 256 259 263 268 274 276 277 277 278 277 275 274 273 271 269 268 267 266 266 267 264 262 260 257 255 253 252 248 246 245 243 243 242 241 239 238 236 235 232
308 292 296 273 267 264 262 272 279 276 274 277 279 281 280 278 276 274 273 272 269 267 267 266 265 264 262 259 256 255 253 250 248 247 244 244 243 242 241 239 238 237 235
344 311 300 300 289 291 284 282 284 283 284 284 283 285 285 283 281 278 277 275 272 270 269 268 268 266 264 261 259 256 255 253 249 248 246 246 244 243 243 242 240 239 237
8 355 348 332 318 316 302 293 292 295 295 294 292 291 291 290 287 283 279 276 273 271 271 271 269 268 266 264 262 258 256 253 251 249 248 247 245 244 244 243 241 239 237
27 16 8 1 342 330 321 314 309 306 304 302 300 298 297 296 294 292 286 281 277 273 272 271 270 268 266 265 263 261 257 256 253 251 250 250 248 246 245 242 240 239 238
18 15 9 1 351 340 331 325 320 318 317 316 313 309 303 300 298 296 293 288 284 280 276 274 272 270 267 265 263 262 260 259 256 253 251 250 250 249 245 243 242 241 240
23 17 10 3 360 353 346 340 334 330 329 327 323 318 312 308 304 302 300 296 291 286 282 279 276 272 269 267 265 263 262 261 259 256 253 251 251 250 247 245 243 243 241
27 24 16 11 8 1 354 348 342 338 336 333 330 327 323 318 313 308 305 302 298 293 288 285 282 278 274 271 268 266 263 261 260 258 256 254 252 251 249 248 245 243 241
Height
5888 5888 5888 5888 5888 5888 5887 5887 5888 5889 5889 5890 5890 5891 5892 5892 5892 5893 5894 5894 5895 5895 5895 5895 5896 5896 5896 5896 5896 5896 5896 5896 5896 5896 5896 5896 5896 5896 5897 5897 5897 5898 5898
5886 5886 5887 5887 5886 5887 5887 5887 5888 5888 5889 5890 5890 5891 5891 5892 5893 5893 5894 5894 5895 5895 5896 5896 5896 5896 5896 5897 5897 5897 5897 5897 5897 5897 5897 5897 5897 5898 5898 5898 5899 5899 5900
5885 5885 5885 5885 5885 5885 5886 5886 5887 5887 5888 5889 5890 5890 5891 5891 5892 5893 5893 5894 5895 5895 5896 5896 5896 5896 5897 5897 5897 5897 5897 5897 5897 5897 5898 5898 5898 5899 5899 5900 5900 5901 5901
5883 5884 5884 5884 5884 5884 5884 5885 5885 5886 5887 5888 5889 5889 5890 5891 5891 5892 5893 5893 5894 5895 5895 5896 5896 5897 5897 5897 5898 5898 5898 5898 5898 5898 5898 5899 5899 5900 5900 5901 5901 5902 5902
5881 5882 5882 5882 5882 5882 5883 5883 5884 5885 5885 5886 5887 5888 5889 5889 5890 5891 5892 5892 5893 5894 5895 5895 5896 5896 5897 5897 5897 5898 5898 5898 5899 5899 5899 5900 5900 5901 5901 5902 5902 5903 5904
5879 5879 5880 5880 5881 5881 5881 5882 5882 5883 5884 5885 5885 5886 5887 5888 5888 5889 5890 5891 5892 5893 5894 5894 5895 5895 5896 5897 5897 5897 5898 5898 5899 5899 5900 5900 5901 5901 5902 5902 5903 5904 5904
5876 5876 5877 5878 5878 5879 5879 5880 5881 5881 5882 5883 5883 5884 5885 5886 5886 5887 5888 5889 5890 5891 5892 5893 5894 5894 5895 5896 5896 5897 5897 5898 5899 5899 5900 5900 5901 5902 5902 5903 5904 5904 5905
5873 5873 5874 5875 5876 5877 5877 5878 5879 5880 5880 5881 5881 5882 5883 5883 5884 5885 5885 5886 5887 5889 5890 5891 5892 5893 5893 5894 5895 5896 5896 5897 5898 5899 5899 5900 5901 5902 5903 5903 5904 5905 5906
5871 5871 5872 5873 5874 5875 5876 5876 5877 5877 5878 5878 5879 5880 5881 5881 5881 5882 5883 5884 5885 5886 5887 5888 5890 5891 5892 5893 5893 5894 5895 5896 5897 5898 5899 5900 5901 5902 5903 5904 5905 5906 5907
5868 5869 5869 5870 5872 5873 5874 5874 5875 5875 5876 5876 5877 5877 5878 5878 5879 5879 5880 5881 5882 5883 5884 5886 5887 5888 5889 5890 5891 5892 5893 5895 5896 5897 5898 5899 5900 5901 5902 5903 5905 5906 5907
5865 5866 5867 5868 5869 5870 5870 5871 5872 5872 5873 5874 5874 5875 5875 5876 5876 5876 5877 5877 5879 5880 5881 5882 5883 5885 5886 5887 5888 5890 5891 5893 5894 5895 5896 5898 5899 5900 5901 5902 5904 5905 5907
5862 5863 5864 5865 5866 5867 5867 5868 5868 5869 5870 5871 5871 5872 5872 5873 5873 5873 5874 5874 5875 5876 5877 5878 5880 5881 5883 5884 5885 5887 5888 5890 5891 5893 5894 5896 5897 5898 5900 5901 5903 5904 5906
5859 5860 5862 5862 5863 5864 5865 5865 5866 5866 5867 5867 5868 5868 5868 5869 5870 5870 5870 5870 5871 5872 5873 5874 5876 5877 5879 5880 5882 5884 5885 5887 5888 5890 5892 5893 5894 5896 5897 5899 5901 5903 5904
5855 5857 5858 5860 5860 5861 5862 5862 5863 5863 5863 5864 5864 5864 5865 5865 5866 5866 5867 5867 5868 5868 5869 5870 5871 5873 5875 5876 5878 5880 5882 5883 5885 5886 5888 5890 5892 5893 5895 5897 5899 5900 5902
5853 5855 5856 5857 5857 5858 5858 5859 5859 5859 5859 5860 5860 5861 5861 5862 5862 5862 5863 5863 5864 5865 5865 5866 5866 5868 5870 5872 5874 5876 5878 5880 5881 5883 5885 5887 5888 5890 5892 5894 5896 5898 5900
5851 5852 5852 5853 5854 5855 5855 5856 5856 5856 5856 5857 5857 5857 5857 5858 5858 5859 5859 5860 5860 5861 5861 5862 5862 5864 5865 5867 5869 5871 5873 5875 5877 5879 5881 5883 5885 5887 5889 5890 5892 5894 5896
5848 5849 5849 5850 5851 5852 5852 5853 5853 5853 5853 5854 5854 5854 5854 5854 5855 5855 5855 5856 5856 5856 5857 5858 5858 5859 5861 5862 5864 5866 5868 5870 5872 5874 5876 5878 5880 5883 5885 5886 5888 5890 5893
5845 5846 5847 5848 5849 5849 5849 5849 5850 5850 5850 5851 5851 5851 5851 5851 5851 5851 5851 5852 5852 5852 5853 5854 5854 5855 5856 5858 5859 5861 5863 5865 5867 5869 5871 5874 5876 5878 5880 5882 5884 5886 5888
5844 5845 5845 5845 5846 5846 5846 5847 5847 5847 5847 5848 5848 5847 5847 5847 5847 5847 5847 5847 5848 5848 5849 5849 5850 5851 5852 5853 5854 5856 5857 5859 5861 5863 5866 5868 5871 5873 5875 5877 5880 5882 5884
5842 5843 5843 5843 5844 5844 5844 5844 5845 5845 5844 5845 5844 5844 5844 5844 5843 5843 5843 5843 5843 5844 5844 5845 5845 5846 5847 5848 5849 5850 5852 5854 5856 5858 5860 5862 5865 5867 5870 5872 5875 5877 5879
5842 5842 5842 5841 5842 5841 5842 5842 5842 5842 5842 5842 5841 5841 5840 5840 5840 5839 5839 5839 5839 5839 5840 5840 5840 5841 5842 5843 5844 5845 5847 5848 5850 5852 5854 5856 5859 5861 5864 5866 5869 5872 5874
5842 5842 5841 5841 5841 5840 5840 5840 5840 5840 5839 5839 5838 5837 5837 5836 5836 5835 5835 5835 5835 5835 5835 5835 5835 5836 5837 5837 5838 5839 5841 5843 5844 5846 5848 5850 5852 5854 5857 5859 5862 5865 5868
5841 5841 5840 5840 5839 5839 5839 5838 5838 5838 5837 5836 5835 5834 5834 5833 5832 5831 5831 5831 5830 5830 5830 5830 5830 5831 5831 5832 5833 5834 5835 5836 5838 5839 5841 5843 5845 5847 5850 5852 5855 5858 5861
5840 5840 5839 5839 5838 5837 5837 5837 5836 5835 5834 5833 5832 5831 5830 5829 5828 5828 5827 5826 5826 5826 5826 5825 5825 5825 5826 5826 5827 5828 5829 5829 5831 5832 5834 5836 5837 5840 5842 5845 5848 5850 5853
5840 5839 5838 5838 5837 5837 5836 5835 5834 5833 5832 5831 5830 5829 5828 5826 5825 5824 5823 5822 5822 5821 5821 5820 5820 5820 5820 5821 5821 5821 5822 5823 5824 5825 5827 5829 5830 5832 5834 5837 5839 5842 5845
5840 5839 5838 5837 5836 5836 5835 5834 5833 5832 5830 5829 5828 5826 5825 5823 5822 5821 5820 5818 5817 5817 5816 5815 5815 5815 5815 5815 5815 5815 5816 5816 5817 5818 5819 5821 5823 5825 5826 5828 5831 5833 5836